Showing default

QIANFAN-35, 61568

Orbit data source: Space-Track

QIANFAN-35, 61568 is a Chinese payload satellite in LEO that was launched on Tue, 15 Oct 2024 UTC via a CHANG ZHENG 6A launch vehicle from the Taiyaun Space Center, China (TSC). Payload-class satellites include a variety of spacecraft equipped with specific instruments for various scientific and technological missions. These include communications satellites like Starlink; space stations such as the ISS; scientific satellites like the Hubble; Earth observation satellites from companies like Planet Labs, Umbra, and HawkEye 360; GPS; miniature CubeSats for education and research; and military/defense satellites.

Loading next visibility...
Identifier
61568, 2024-185S
Orbit
LEO
Country
Flag of CNCN / PRC
Related business
Manufacturer
GESIH/SECM
Mission
Partially operational Commercial Communications
Bus & Motor
QIANFAN, Unknown motor
Mass
267 kg wet, ~267 kg dry
Launch date (UTC)
2024-10-15 (2 years ago)
Launch vehicle
CHANG ZHENG 6A
Launch site
Taiyaun Space Center, China (TSC)
Object type
Payload
Rocket body
Debris
Shape & HBR
Box + 1 Pan, 5.0 m
Radar Cross Section
13.200 m², Large (>1 m²)

Expand to show TLE details & history
Last TLE update: 6 hours ago

TLE from 6 hours ago
0 QIANFAN-35
1 61568U 24185S   26165.97221893  .00000560  00000-0  21897-3 0  9998
2 61568  88.9825  55.2517 0008367  51.7836 308.4110 14.28267532 96470
Epoch: 2026-06-14T23:19Z
TLE epoch observation values (Epoch: 2026-06-14T23:19:59.715Z)
Latitude
-0.0001°
Longitude
161.98759°
Altitude
796.865 km
Speed
7.457 km/s
True Right ascension
03h 41m 00s
True Declination
0° 00' 00"
Sunlit
Object was in daylight at epoch
Visualization orbit readout
Latitude
Unknown
Longitude
Unknown
Altitude
Unknown
Speed
Unknown
Apparent Right ascension
Unknown
Apparent Declination
Unknown
Sunlit
N/A
Visualization observer readout
Local Sidereal Time
16:04:50
Azimuth
Unknown
Elevation
Unknown
Doppler factor
Unknown
Orbital elements
Apogee altitude
800.468 km
Perigee altitude
788.466 km
Semi-major axis
7,172.604 km
Eccentricity
0.00084
Inclination
88.9825°
RAAN
55.2517°
Arg. of periapsis
51.7836°
True anomaly
308.33582°
Mean anomaly
308.411°
Eccentric anomaly
308.37342°
Mean motion
3.57296 °/min
Orbital period
100.76 mins
BSTAR
0.00021897
Loading maneuver chart data...
Computing Atmospheric mass density...
Loading historical data...
Loading historical data...
Loading historical data...
Loading historical data...
Loading historical data...
Loading historical data...
Loading historical data...

Documentation

Showing up to 5 results
|